Showing default

LCS 1, 1361

Orbit data source: Space-Track

LCS 1, 1361 is an American payload satellite in LEO that was launched on Thu, 06 May 1965 UTC via a TITAN IIIA launch vehicle from the Air Force Eastern Test Range (AFETR). Payload-class satellites include a variety of spacecraft equipped with specific instruments for various scientific and technological missions. These include communications satellites like Starlink; space stations such as the ISS; scientific satellites like the Hubble; Earth observation satellites from companies like Planet Labs, Umbra, and HawkEye 360; GPS; miniature CubeSats for education and research; and military/defense satellites.

Loading next visibility...
Identifier
1361, 1965-034C
Orbit
LEO
Last TLE update
10 hours ago
Origin
Manufacturer
ROHR/MITLL
Mission
Operational Defense Calibration
Bus & Motor
LCS, Unknown motor
Mass
34 kg wet, 34 kg dry
Launch date (UTC)
1965-05-06 (60 years ago)
Launch vehicle
TITAN IIIA
Launch site
Air Force Eastern Test Range (AFETR)
Object type
Payload
Rocket body
Debris
Shape & HBR
Sphere, 0.6 m
Radar Cross Section
1.003 m², Medium (>0.1 m² and < 1m²)

Expand to show TLE details & history

TLE from 10 hours ago
0 LCS 1
1 01361U 65034C   25199.54091752  .00000018  00000-0  12923-2 0  9996
2 01361  32.1382 249.2274 0012826  20.1380 339.9622  9.89309093176845
Epoch: 2025-07-18T12:58Z
TLE epoch observation values (Epoch: 2025-07-18T12:58:55.273Z)
Latitude
-0°
Longitude
117.90619°
Altitude
2,775.796 km
Speed
6.605 km/s
True Right ascension
16h 36m 54s
True Declination
0° 00' 00"
Sunlit
Object was in daylight at epoch
Visualization orbit readout
Latitude
31.57473°
Longitude
-140.05737°
Altitude
2,785.942 km
Speed
6.6 km/s
Apparent Right ascension
23h 41m 56s
Apparent Declination
3° 12' 11"
Sunlit
Object is in daylight
Visualization observer readout
Local Sidereal Time
12:08:53
Azimuth
9.789° NNE
Elevation
-46.439°
Doppler factor
1
Orbital elements
Apogee altitude
2,802.408 km
Perigee altitude
2,778.888 km
Semi-major axis
9,168.785 km
Eccentricity
0.00128
Inclination
32.1382°
RAAN
249.2274°
Arg. of periapsis
20.138°
True anomaly
339.91176°
Mean anomaly
339.9622°
Eccentric anomaly
339.93699°
Mean motion
2.47215 °/min
Orbital period
145.62 mins
BSTAR
0.0012923
Loading maneuver chart data...
Loading SW <> Apogee altitude chart data...
Loading historical data...
Loading historical data...
Loading historical data...
Loading historical data...
Loading historical data...
Loading historical data...
Loading historical data...
Other satellites on launch #34 in the year 1965 (1965-05-06 UTC)
|